Location: Artiguedieu
(43.5000°N, 0.5454°E)
Time: 13:36:20
(UTC+00:00)

HuskySat-1 - Pass Details

Date: 04 October 2021
Orbit: 445 x 458 km, 51.6° (Epoch: 27 October)

Event Time Altitude Azimuth Distance (km) Brightness Sun altitude
Rises 18:29:14 0° 266° (W) 2,455 ? -11.0°
Reaches altitude 10° 18:31:31 10° 277° (W) 1,587 ? -11.4°
Maximum altitude 18:34:45 31° 342° (NNW) 820 ? -12.0°
Enters shadow 18:37:58 10° 46° (NE) 1,579 ? -12.5°
